Location: Camp Crooked Creek
(37.9149°N, 85.6607°W)
Time: 00:56:01
(UTC-04:00)

Amateur Radio Satellites - All Passes

Search period start: 23 May 2017 00:26
Search period end: 24 May 2017 00:26
Location: Camp Crooked Creek, 37.9149°N, 85.6607°W

Satellite Date Start Highest point End Downlink Frequencies (MHz)
Time Altitude Azimuth
ESTCUBE 1 23 May 00:27:45 00:32:17 89° 258° (WSW) 00:36:51 437.505/2401.250
AIST 2D 23 May 00:28:33 00:31:37 27° 96° (E) 00:34:41 435.315
SPROUT 23 May 00:34:51 00:38:20 25° 70° (ENE) 00:41:50 437.525
50 SAT 23 May 00:38:07 00:39:10 11° 67° (ENE) 00:40:13 437.505
FO-29 23 May 00:39:56 00:45:50 45° 289° (WNW) 00:52:27 435.910
NANOSAT C BR1 23 May 00:41:57 00:44:54 18° 94° (E) 00:47:50 145.865
POLYITAN 1 23 May 00:42:04 00:45:17 20° 95° (E) 00:48:28 437.675
SO-50 23 May 00:46:34 00:51:06 60° 303° (WNW) 00:55:37 436.795
QB50P2 23 May 00:50:07 00:53:45 27° 96° (E) 00:57:24 145.880/145.840
DUCHIFAT 1 23 May 00:54:44 00:58:06 23° 95° (E) 01:01:27 145.980
DX 1 23 May 00:57:59 01:00:51 17° 66° (ENE) 01:03:43 434.975-435.025
UKube-1 23 May 01:00:28 01:02:14 12° 64° (ENE) 01:04:02 .
TIGRISAT 23 May 01:13:58 01:16:12 14° 295° (WNW) 01:18:27 435.000
EO-79 23 May 01:28:23 01:32:38 73° 101° (E) 01:36:53 145.935-145.965
BUGSAT 1 23 May 01:30:55 01:33:40 17° 94° (E) 01:36:24 437.445
VELOX 1 23 May 01:42:50 01:47:08 50° 260° (W) 01:51:27 145.980
AIST 2D 23 May 02:02:23 02:04:36 16° 291° (WNW) 02:06:48 435.315
RS-15 23 May 02:06:05 02:14:43 24° 100° (E) 02:23:28 29.354- 29.394
YUBILEINY 23 May 02:07:35 02:15:46 48° 89° (E) 02:24:01 435.215
50 SAT 23 May 02:08:25 02:11:40 37° 261° (W) 02:14:55 437.505
SPROUT 23 May 02:10:44 02:14:09 24° 265° (W) 02:17:36 437.525
NANOSAT C BR1 23 May 02:16:51 02:20:39 33° 289° (WNW) 02:24:28 145.865
POLYITAN 1 23 May 02:17:19 02:21:03 30° 289° (WNW) 02:24:48 437.675
QB50P2 23 May 02:26:04 02:29:24 23° 291° (WNW) 02:32:44 145.880/145.840
Gurwin Techsat 1B 23 May 02:28:56 02:32:15 17° 92° (E) 02:35:34 435.225
DUCHIFAT 1 23 May 02:30:09 02:33:42 27° 290° (WNW) 02:37:15 145.980
DX 1 23 May 02:32:38 02:36:42 39° 261° (W) 02:40:48 434.975-435.025
UKube-1 23 May 02:33:31 02:37:45 56° 259° (W) 02:42:00 .
BUGSAT 1 23 May 03:05:22 03:09:04 34° 288° (WNW) 03:12:49 437.445
ITUPSAT 1 23 May 03:05:42 03:09:35 25° 68° (ENE) 03:13:29 437.325
Oscar 19 23 May 03:23:56 03:29:08 83° 285° (WNW) 03:34:16 437.125/150
BEESAT 23 May 03:41:12 03:45:52 61° 73° (ENE) 03:50:34 436.000
MOZHAYETS 4 23 May 04:00:47 04:05:12 49° 73° (ENE) 04:09:39
YUBILEINY 23 May 04:04:59 04:12:42 35° 287° (WNW) 04:20:31 435.215
Gurwin Techsat 1B 23 May 04:07:19 04:12:30 55° 288° (WNW) 04:17:41 435.225
RS-15 23 May 04:13:29 04:25:35 87° 300° (WNW) 04:38:03 29.354- 29.394
ITAMSAT 1 23 May 04:16:57 04:21:09 24° 95° (E) 04:25:20 435.822/435.867
AO-7 23 May 04:26:40 04:34:02 33° 98° (E) 04:41:21 .
CUBESAT XI-V 23 May 04:36:35 04:40:06 21° 67° (ENE) 04:43:39 437.345
ISS 23 May 04:39:03 04:41:37 21° 27° (NNE) 04:44:11 437.550
ITUPSAT 1 23 May 04:43:03 04:47:15 31° 263° (W) 04:51:29 437.325
Tancredo 1 23 May 04:47:33 04:50:20 31° 33° (NNE) 04:53:08 437.200
PCSat 23 May 05:05:38 05:09:13 18° 47° (NE) 05:12:47 145.827
BEESAT 23 May 05:22:02 05:24:00 12° 269° (W) 05:25:59 436.000
KKS-1 23 May 05:24:08 05:28:30 60° 74° (ENE) 05:32:51 437.445
O/OREOS (USA 219) 23 May 05:38:58 05:43:33 72° 108° (ESE) 05:48:08 437.305
MOZHAYETS 4 23 May 05:40:08 05:42:36 14° 268° (W) 05:45:06
ITAMSAT 1 23 May 05:55:53 06:00:40 37° 290° (WNW) 06:05:25 435.822/435.867
JUGNU 23 May 06:05:53 06:07:28 11° 171° (S) 06:09:02 437.505
STARS 23 May 06:06:41 06:11:01 75° 77° (ENE) 06:15:23 437.465
CUBESAT XI-V 23 May 06:12:54 06:17:13 36° 263° (W) 06:21:35 437.345
ISS 23 May 06:15:07 06:18:16 47° 225° (SW) 06:21:25 437.550
AO-7 23 May 06:18:58 06:26:58 52° 295° (WNW) 06:34:57 .
Tancredo 1 23 May 06:23:35 06:25:59 21° 228° (SW) 06:28:23 437.200
AO-85 23 May 06:24:49 06:29:02 70° 119° (ESE) 06:33:03 145.980
RS-15 23 May 06:29:43 06:40:04 30° 326° (NW) 06:50:32 29.354- 29.394
DOVE 4 23 May 06:29:48 06:32:10 15° 93° (E) 06:34:33 437.250
BEESAT 3 23 May 06:43:21 06:46:47 29° 113° (ESE) 06:50:16 437.485
LilacSat-2 23 May 06:44:25 06:45:41 11° 91° (E) 06:46:55 437.200
PCSat 23 May 06:47:45 06:53:10 72° 245° (WSW) 06:58:32 145.827
KKS-1 23 May 07:04:11 07:05:23 11° 269° (W) 07:06:35 437.445
O/OREOS (USA 219) 23 May 07:21:45 07:23:28 12° 306° (NW) 07:25:10 437.305
XW-2D 23 May 07:21:45 07:25:16 33° 97° (E) 07:28:45 145.860 - 145.880
CUTE-I 23 May 07:21:49 07:26:30 31° 97° (E) 07:31:10 437.470
XW-2B 23 May 07:29:28 07:33:07 40° 98° (E) 07:36:44 145.730 - 145.750
STRAND 1 23 May 07:35:08 07:39:34 31° 69° (ENE) 07:44:01 437.568
XW-2C 23 May 07:42:47 07:46:37 62° 100° (E) 07:50:25 145.795 - 145.815
XW-2F 23 May 07:44:54 07:48:43 63° 100° (E) 07:52:31 145.980 - 146.000
BEESAT 2 23 May 07:50:50 07:54:44 62° 118° (ESE) 07:58:42 435.950
JUGNU 23 May 07:52:58 07:55:36 13° 182° (S) 07:58:13 437.505
NUDT-PHONESAT 23 May 07:56:30 08:00:17 71° 102° (ESE) 08:04:01 437.300
KAITUO 1B 23 May 07:59:21 08:03:10 79° 100° (E) 08:06:57 145.475/437.950
M-CUBED/EXP-1 PRIME 23 May 08:05:35 08:08:36 19° 64° (ENE) 08:11:29 437.505
DOVE 4 23 May 08:06:11 08:10:01 38° 287° (WNW) 08:13:55 437.250
AO-85 23 May 08:08:14 08:09:48 12° 315° (NW) 08:11:23 145.980
LilacSat-2 23 May 08:16:27 08:20:10 44° 286° (WNW) 08:23:50 437.200
AO-7 23 May 08:16:39 08:17:47 10° 315° (NW) 08:18:55 .
HO-68 23 May 08:17:59 08:24:07 30° 96° (E) 08:30:12 435.675
BEESAT 3 23 May 08:21:11 08:24:21 22° 310° (NW) 08:27:34 437.485
CUBEBUG 2 23 May 08:24:34 08:26:24 12° 91° (E) 08:28:14 437.445
CUTE 1.7 + AOD 2 23 May 08:26:42 08:30:17 25° 95° (E) 08:33:48 437.475
UWE-3 23 May 08:43:35 08:45:11 12° 91° (E) 08:46:48 435.000/436.395/437.385
RS-15 23 May 08:50:56 08:58:33 18° 1° (N) 09:06:05 29.354- 29.394
XW-2D 23 May 08:56:50 08:59:09 16° 292° (WNW) 09:01:29 145.860 - 145.880
AAUSAT CUBESAT 2 23 May 09:00:28 09:03:16 17° 93° (E) 09:06:03 437.432
CUTE-I 23 May 09:01:50 09:06:27 31° 292° (WNW) 09:11:05 437.470
XW-2B 23 May 09:05:04 09:06:56 13° 293° (WNW) 09:08:46 145.730 - 145.750
STRAND 1 23 May 09:14:21 09:18:40 28° 264° (W) 09:23:02 437.568
SO-50 23 May 09:19:20 09:23:51 72° 58° (ENE) 09:28:22 436.795
SEEDS 23 May 09:23:08 09:27:22 76° 101° (E) 09:31:33 437.485
XW-2A 23 May 09:29:07 09:32:28 50° 284° (WNW) 09:35:49 145.665 - 145.685
BEESAT 2 23 May 09:30:55 09:32:53 13° 315° (NW) 09:34:52 435.950
Oscar 11 23 May 09:31:40 09:34:14 15° 92° (E) 09:36:48 .
M-CUBED/EXP-1 PRIME 23 May 09:38:42 09:42:47 37° 256° (WSW) 09:46:39 437.505
AO-73 23 May 09:52:10 09:56:20 35° 97° (E) 10:00:29 145.935
CUBEBUG 2 23 May 09:58:48 10:03:17 59° 285° (WNW) 10:07:52 437.445
CUTE 1.7 + AOD 2 23 May 10:02:32 10:05:59 24° 291° (WNW) 10:09:24 437.475
ZACube-1 23 May 10:03:33 10:08:00 52° 99° (E) 10:12:28 437.345
HO-68 23 May 10:05:08 10:12:01 49° 292° (WNW) 10:18:51 435.675
SRMSAT 23 May 10:13:22 10:15:56 13° 180° (S) 10:18:32 437.500
UWE-3 23 May 10:17:27 10:21:57 61° 285° (WNW) 10:26:31 435.000/436.395/437.385
TIGRISAT 23 May 10:32:38 10:36:33 38° 72° (ENE) 10:40:31 435.000
NO-84 23 May 10:34:35 10:38:56 66° 132° (SE) 10:43:10 435.350 FM
AAUSAT CUBESAT 2 23 May 10:35:04 10:38:47 32° 288° (WNW) 10:42:28 437.432
PRISM 23 May 10:45:41 10:49:50 86° 82° (E) 10:54:00 437.425
FO-29 23 May 10:51:05 10:56:16 66° 74° (ENE) 11:01:26 435.910
EO-88 23 May 10:55:38 10:58:39 24° 96° (E) 11:01:40 145.990 - 145.960
UNISAT 6 23 May 11:02:48 11:07:02 85° 253° (WSW) 11:11:22 437.425
SO-50 23 May 11:02:51 11:03:40 10° 253° (WSW) 11:04:30 436.795
RS-15 23 May 11:06:12 11:16:49 32° 36° (NE) 11:26:59 29.354- 29.394
Oscar 11 23 May 11:06:25 11:10:32 42° 288° (WNW) 11:14:37 .
DELFI C3 23 May 11:28:37 11:32:34 84° 283° (WNW) 11:36:28 145.870
AO-73 23 May 11:28:56 11:32:18 21° 292° (WNW) 11:35:41 145.935
NANOSAT C BR1 23 May 11:34:06 11:35:21 11° 64° (ENE) 11:36:36 145.865
POLYITAN 1 23 May 11:34:18 11:36:08 13° 65° (ENE) 11:38:00 437.675
ZACube-1 23 May 11:41:21 11:43:49 15° 294° (WNW) 11:46:18 437.345
QB50P2 23 May 11:41:45 11:44:28 17° 67° (ENE) 11:47:12 145.880/145.840
DUCHIFAT 1 23 May 11:45:59 11:48:06 14° 66° (ENE) 11:50:15 145.980
LO-87 23 May 11:52:25 11:54:23 14° 94° (E) 11:56:20 145.935 - 145.965
SRMSAT 23 May 12:03:29 12:04:13 10° 190° (S) 12:04:56 437.500
TIGRISAT 23 May 12:10:46 12:13:22 16° 267° (W) 12:16:01 435.000
NO-84 23 May 12:13:31 12:16:51 21° 328° (NNW) 12:20:04 435.350 FM
EO-79 23 May 12:18:54 12:22:49 40° 73° (ENE) 12:26:45 145.935-145.965
YUBILEINY 23 May 12:20:37 12:26:59 21° 66° (ENE) 12:33:19 435.215
ESTCUBE 1 23 May 12:22:40 12:26:10 22° 95° (E) 12:29:37 437.505/2401.250
EO-88 23 May 12:29:31 12:32:10 19° 291° (WNW) 12:34:49 145.990 - 145.960
AIST 2D 23 May 12:33:30 12:36:55 55° 260° (W) 12:40:24 435.315
FO-29 23 May 12:40:07 12:41:54 12° 270° (W) 12:43:42 435.910
Oscar 19 23 May 13:02:40 13:05:20 14° 62° (ENE) 13:08:01 437.125/150
NANOSAT C BR1 23 May 13:06:26 13:10:32 58° 260° (W) 13:14:40 145.865
POLYITAN 1 23 May 13:07:24 13:11:27 50° 260° (W) 13:15:33 437.675
QB50P2 23 May 13:16:05 13:19:56 36° 262° (W) 13:23:51 145.880/145.840
RS-15 23 May 13:18:44 13:30:58 87° 243° (WSW) 13:42:32 29.354- 29.394
DUCHIFAT 1 23 May 13:19:23 13:23:22 45° 261° (W) 13:27:22 145.980
LO-87 23 May 13:24:46 13:27:51 28° 288° (WNW) 13:30:56 145.935 - 145.965
50 SAT 23 May 13:34:18 13:35:57 13° 94° (E) 13:37:37 437.505
VELOX 1 23 May 13:34:35 13:38:32 32° 97° (E) 13:42:28 145.980
Gurwin Techsat 1B 23 May 13:48:06 13:52:14 24° 66° (ENE) 13:56:22 435.225
BUGSAT 1 23 May 13:52:41 13:56:38 63° 259° (W) 14:00:37 437.445
EO-79 23 May 13:56:26 13:58:44 14° 267° (W) 14:01:04 145.935-145.965
SPROUT 23 May 13:56:58 14:01:12 62° 101° (E) 14:05:26 437.525
ESTCUBE 1 23 May 13:58:58 14:02:58 31° 290° (WNW) 14:06:56 437.505/2401.250
O/OREOS (USA 219) 23 May 14:14:36 14:15:20 10° 53° (NE) 14:16:04 437.305
YUBILEINY 23 May 14:15:52 14:24:42 78° 266° (W) 14:33:31 435.215
DX 1 23 May 14:22:14 14:26:17 38° 99° (E) 14:30:18 434.975-435.025
UKube-1 23 May 14:22:33 14:26:08 25° 96° (E) 14:29:43 .
Oscar 19 23 May 14:38:52 14:44:02 69° 258° (WSW) 14:49:14 437.125/150
AO-85 23 May 14:57:22 15:01:03 33° 54° (NE) 15:04:54 145.980
BEESAT 3 23 May 15:02:39 15:04:28 13° 45° (NE) 15:06:16 437.485
50 SAT 23 May 15:05:56 15:08:52 28° 288° (WNW) 15:11:48 437.505
VELOX 1 23 May 15:11:31 15:14:45 20° 293° (WNW) 15:17:59 145.980
AO-7 23 May 15:23:47 15:31:18 41° 62° (ENE) 15:38:50 .
Gurwin Techsat 1B 23 May 15:26:55 15:31:53 41° 261° (W) 15:36:54 435.225
ITAMSAT 1 23 May 15:33:09 15:37:40 32° 68° (ENE) 15:42:12 435.822/435.867
RS-15 23 May 15:33:55 15:41:30 20° 262° (W) 15:48:54 29.354- 29.394
SPROUT 23 May 15:35:25 15:36:33 11° 296° (WNW) 15:37:40 437.525
BEESAT 23 May 15:44:04 15:47:15 18° 93° (E) 15:50:26 436.000
O/OREOS (USA 219) 23 May 15:50:49 15:55:21 80° 251° (WSW) 15:59:49 437.305
UKube-1 23 May 15:58:33 16:02:03 25° 291° (WNW) 16:05:33 .
MOZHAYETS 4 23 May 15:59:08 16:01:24 13° 91° (E) 16:03:40
DX 1 23 May 15:59:16 16:02:09 18° 294° (WNW) 16:05:01 434.975-435.025
BEESAT 2 23 May 16:10:29 16:13:44 22° 50° (NE) 16:16:56 435.950
YUBILEINY 23 May 16:16:31 16:19:55 13° 285° (WNW) 16:23:19 435.215
AO-85 23 May 16:38:11 16:41:14 20° 248° (WSW) 16:44:24 145.980
BEESAT 3 23 May 16:38:29 16:42:29 66° 241° (WSW) 16:46:23 437.485
ITUPSAT 1 23 May 16:44:24 16:49:14 76° 102° (ESE) 16:54:02 437.325
NO-84 23 May 17:11:18 17:14:07 20° 31° (NNE) 17:16:45 435.350 FM
ITAMSAT 1 23 May 17:12:41 17:17:05 28° 264° (W) 17:21:31 435.822/435.867
AO-7 23 May 17:16:10 17:23:55 44° 260° (W) 17:31:45 .
KKS-1 23 May 17:18:32 17:20:33 13° 92° (E) 17:22:32 437.445
BEESAT 23 May 17:20:39 17:25:12 44° 288° (WNW) 17:29:43 436.000
DOVE 4 23 May 17:33:52 17:36:28 15° 67° (ENE) 17:39:00 437.250
MOZHAYETS 4 23 May 17:34:18 17:38:51 54° 286° (WNW) 17:43:21
BEESAT 2 23 May 17:47:55 17:51:30 31° 247° (WSW) 17:55:03 435.950
STARS 23 May 17:58:59 18:01:33 15° 93° (E) 18:04:06 437.465
XW-2D 23 May 18:02:43 18:04:35 13° 67° (ENE) 18:06:27 145.860 - 145.880
XW-2B 23 May 18:10:02 18:12:22 16° 68° (ENE) 18:14:43 145.730 - 145.750
CUBESAT XI-V 23 May 18:10:40 18:15:18 63° 101° (E) 18:19:52 437.345
XW-2C 23 May 18:22:44 18:25:45 23° 70° (ENE) 18:28:47 145.795 - 145.815
XW-2F 23 May 18:24:28 18:27:27 23° 70° (ENE) 18:30:28 145.980 - 146.000
ITUPSAT 1 23 May 18:24:51 18:26:23 11° 299° (WNW) 18:27:55 437.325
NUDT-PHONESAT 23 May 18:34:25 18:37:24 23° 70° (ENE) 18:40:25 437.300
KAITUO 1B 23 May 18:37:47 18:40:58 26° 71° (ENE) 18:44:11 145.475/437.950
CUTE-I 23 May 18:41:49 18:46:47 42° 70° (ENE) 18:51:46 437.470
HO-68 23 May 18:46:21 18:51:07 19° 58° (ENE) 18:55:53 435.675
NO-84 23 May 18:48:30 18:51:50 41° 231° (SW) 18:54:52 435.350 FM
KKS-1 23 May 18:53:03 18:57:22 51° 287° (WNW) 19:01:39 437.445
LilacSat-2 23 May 18:55:58 18:59:44 65° 76° (ENE) 19:03:34 437.200
DOVE 4 23 May 19:09:09 19:13:48 50° 260° (W) 19:18:12 437.250
CUTE 1.7 + AOD 2 23 May 19:18:29 19:21:01 16° 66° (ENE) 19:23:33 437.475
STARS 23 May 19:33:55 19:38:04 43° 288° (WNW) 19:42:12 437.465
XW-2D 23 May 19:34:51 19:38:23 38° 262° (W) 19:41:59 145.860 - 145.880
XW-2B 23 May 19:42:52 19:46:16 31° 263° (W) 19:49:43 145.730 - 145.750
PCSat 23 May 19:46:07 19:49:48 19° 105° (ESE) 19:53:30 145.827
STRAND 1 23 May 19:49:18 19:51:03 12° 90° (E) 19:52:47 437.568
CUBESAT XI-V 23 May 19:50:06 19:52:06 13° 296° (WNW) 19:54:05 437.345
XW-2C 23 May 19:56:54 19:59:50 21° 265° (W) 20:02:48 145.795 - 145.815
XW-2F 23 May 19:58:34 20:01:29 21° 265° (W) 20:04:26 145.980 - 146.000
XW-2A 23 May 19:58:37 20:01:39 33° 73° (ENE) 20:04:42 145.665 - 145.685
NUDT-PHONESAT 23 May 20:08:31 20:11:14 19° 265° (W) 20:13:59 437.300
KAITUO 1B 23 May 20:12:24 20:14:58 18° 266° (W) 20:17:34 145.475/437.950
SEEDS 23 May 20:12:44 20:16:41 39° 73° (ENE) 20:20:40 437.485
CUTE-I 23 May 20:22:56 20:26:58 22° 266° (W) 20:31:01 437.470
Oscar 11 23 May 20:27:25 20:27:32 10° 63° (ENE) 20:27:38 .
HO-68 23 May 20:30:50 20:38:00 80° 256° (WSW) 20:45:14 435.675
AO-73 23 May 20:46:34 20:49:42 21° 68° (ENE) 20:52:51 145.935
CUTE 1.7 + AOD 2 23 May 20:52:25 20:56:28 42° 262° (W) 21:00:34 437.475
CUBEBUG 2 23 May 20:55:01 20:59:09 89° 259° (W) 21:03:22 437.445
ZACube-1 23 May 20:57:52 21:01:31 30° 71° (ENE) 21:05:16 437.345
UWE-3 23 May 21:12:28 21:16:36 85° 77° (ENE) 21:20:51 435.000/436.395/437.385
ISS 23 May 21:19:17 21:20:44 12° 128° (SE) 21:22:12 437.550
Tancredo 1 23 May 21:19:21 21:21:37 19° 131° (SE) 21:23:53 437.200
M-CUBED/EXP-1 PRIME 23 May 21:20:56 21:21:54 11° 98° (E) 21:22:53 437.505
AAUSAT CUBESAT 2 23 May 21:22:26 21:26:36 66° 260° (W) 21:30:47 437.432
STRAND 1 23 May 21:25:33 21:30:42 73° 285° (WNW) 21:35:49 437.568
PCSat 23 May 21:27:26 21:32:43 54° 301° (WNW) 21:38:03 145.827
XW-2A 23 May 21:33:46 21:34:31 11° 268° (W) 21:35:16 145.665 - 145.685
SEEDS 23 May 21:49:59 21:52:31 15° 268° (W) 21:55:03 437.485
Oscar 11 23 May 21:58:43 22:03:01 71° 259° (W) 22:07:23 .
DELFI C3 23 May 22:11:57 22:15:42 40° 73° (ENE) 22:19:28 145.870
AO-73 23 May 22:22:05 22:25:43 29° 264° (W) 22:29:27 145.935
HO-68 23 May 22:24:31 22:26:42 11° 272° (W) 22:28:52 435.675
PRISM 23 May 22:30:31 22:32:21 13° 93° (E) 22:34:10 437.425
ZACube-1 23 May 22:34:48 22:37:50 19° 266° (W) 22:40:55 437.345
M-CUBED/EXP-1 PRIME 23 May 22:53:34 22:56:31 30° 293° (WNW) 22:59:24 437.505
ISS 23 May 22:53:36 22:56:52 59° 323° (NW) 23:00:07 437.550
Tancredo 1 23 May 22:54:21 22:57:12 34° 326° (NNW) 23:00:04 437.200
UNISAT 6 23 May 22:56:20 23:00:01 23° 95° (E) 23:03:44 437.425
EO-88 23 May 23:04:18 23:07:53 57° 260° (W) 23:11:30 145.990 - 145.960
ESTCUBE 1 23 May 23:21:01 23:23:58 17° 66° (ENE) 23:26:55 437.505/2401.250
SO-50 23 May 23:31:59 23:36:08 34° 114° (ESE) 23:40:16 436.795
FO-29 23 May 23:44:33 23:50:57 73° 103° (ESE) 23:58:08 435.910
DELFI C3 23 May 23:48:41 23:50:38 13° 268° (W) 23:52:36 145.870
LO-87 23 May 23:58:19 00:01:52 78° 76° (ENE) 00:05:25 145.935 - 145.965
TIGRISAT 24 May 00:01:28 00:06:02 73° 285° (WNW) 00:10:41 435.000
AIST 2D 24 May 00:01:59 00:03:21 12° 92° (E) 00:04:42 435.315
PRISM 24 May 00:03:58 00:07:50 43° 287° (WNW) 00:11:40 437.425
